GFSGL_850_rhum_183.txt.gz
RH
100 100 100 99 99 99 100 100 90 81 92 90 74 57 39 21 17 14 14 16 24 20 18 8 9 10 10 10 12 13 14 16 24 24 35 32 29 19 18 20 20 18 19
100 100 100 100 100 100 100 100 97 100 100 96 72 59 52 47 27 18 19 22 44 42 9 9 9 10 10 10 12 13 14 14 14 16 16 21 19 16 15 13 15 21 18
100 100 100 100 100 100 100 99 100 99 99 97 91 73 61 36 22 22 30 48 18 10 10 9 9 10 10 10 11 12 14 12 11 11 13 15 16 16 19 16 17 20 22
100 100 100 100 100 100 99 96 94 93 92 92 60 55 46 33 21 25 48 21 12 11 10 9 9 10 10 10 11 11 12 12 11 11 12 14 15 16 21 23 20 18 23
100 100 100 100 100 100 100 100 100 97 95 91 51 43 40 29 24 35 20 15 12 12 10 9 9 10 10 11 10 11 11 11 12 12 12 12 13 15 22 26 23 21 23
100 100 100 100 100 100 100 99 100 98 89 70 51 44 31 27 28 24 18 14 13 12 11 10 9 9 9 10 9 10 11 12 13 13 13 14 15 17 20 21 23 27 75
100 100 100 100 100 100 100 98 99 100 74 49 48 36 34 27 27 22 16 14 14 14 13 11 10 9 9 9 9 10 11 13 14 15 16 18 18 19 19 18 18 19 22
100 100 100 99 100 100 100 100 100 100 71 52 45 32 32 38 32 20 14 12 19 18 15 13 11 10 10 10 11 12 12 13 14 15 15 18 19 20 19 19 18 18 19
99 100 99 100 100 100 99 99 100 97 59 50 40 32 77 78 41 20 13 16 22 21 19 16 14 13 12 12 13 13 13 14 15 14 16 17 19 21 21 22 19 18 19
99 98 100 100 100 100 100 100 99 71 53 51 39 79 100 93 73 22 19 18 21 25 24 18 13 13 11 11 12 12 12 14 15 16 17 18 18 19 22 22 22 21 19
100 100 100 100 100 100 100 100 99 93 58 52 50 98 99 87 98 39 20 17 23 27 27 20 13 10 8 8 10 12 13 14 15 16 16 16 16 19 21 23 24 22 20
94 95 100 100 100 99 100 97 100 100 94 51 72 100 99 98 91 26 27 25 25 28 26 22 15 9 8 8 10 13 13 14 15 16 16 17 18 20 22 24 24 24 22
100 100 100 100 98 96 94 92 100 100 98 65 96 98 97 97 75 40 37 30 36 29 23 21 14 10 8 8 8 11 11 13 15 16 18 19 20 21 24 26 27 27 28
100 99 96 93 88 87 87 82 98 98 99 98 98 98 97 96 91 50 38 34 26 36 26 17 13 12 10 13 11 10 13 16 17 18 20 22 23 23 24 26 31 33 36
100 100 98 94 88 84 82 72 92 100 100 93 95 96 96 96 96 93 33 20 17 25 24 27 28 22 20 22 20 16 14 15 17 22 24 27 28 27 28 29 31 35 40
100 100 98 98 98 98 96 98 99 100 99 99 99 99 98 98 98 92 38 31 31 35 41 48 49 39 29 23 20 15 16 18 22 25 28 30 30 30 30 31 31 36 63
100 99 100 99 99 99 99 99 98 99 98 98 98 98 98 98 97 57 38 38 46 50 60 60 64 56 48 33 19 15 18 25 30 33 30 28 28 30 31 32 34 35 39
100 100 100 100 100 99 98 99 98 97 94 96 98 97 97 98 91 52 51 58 65 69 72 69 68 70 68 43 17 18 28 39 48 46 40 34 27 28 31 35 37 38 52
100 100 100 99 98 99 99 98 98 98 97 96 96 96 96 96 89 58 62 74 62 58 62 73 82 85 65 53 24 26 43 59 66 61 50 40 34 31 31 36 40 37 37
100 100 98 97 97 98 98 98 97 97 97 97 96 96 96 96 94 78 84 83 70 69 67 62 64 61 55 45 30 39 60 72 77 79 64 49 39 35 35 36 41 48 52
98 96 98 97 97 97 96 92 96 98 96 96 96 96 94 82 81 83 84 84 91 91 90 76 51 49 57 45 43 59 72 83 92 88 76 59 49 43 43 46 45 42 52
98 98 95 97 98 97 97 96 96 96 96 96 94 86 88 93 90 86 89 90 95 94 95 94 91 92 92 89 83 69 93 94 90 86 77 65 49 46 55 56 47 42 57
94 96 96 98 98 96 96 94 90 86 76 67 74 84 90 94 96 95 96 98 98 97 95 93 91 90 90 88 79 95 95 86 80 82 74 60 49 56 66 62 50 43 49
97 92 92 89 85 80 76 72 71 70 76 83 90 93 94 95 97 96 95 95 96 96 95 94 90 54 57 76 90 91 88 82 75 71 64 56 60 77 76 65 50 42 42
92 90 89 89 91 91 88 84 84 87 91 93 95 96 96 96 96 95 94 93 94 96 96 86 72 77 87 90 88 83 76 67 58 61 71 79 85 84 84 75 58 45 42
97 97 97 97 96 96 96 96 97 96 96 97 97 97 97 97 96 96 96 91 90 88 82 75 83 88 88 84 85 88 90 90 79 74 83 94 96 96 92 82 59 46 45

GFSGL_850_rhum_186.txt.gz
RH
99 100 100 99 98 100 100 100 100 100 100 94 88 81 67 59 37 31 23 28 20 11 10 12 14 11 11 8 11 14 19 56 73 79 29 25 26 45 32 24 21 42 18
100 100 100 100 100 100 100 100 100 100 100 99 90 78 70 69 62 72 59 43 22 18 22 29 15 10 9 10 13 17 22 63 78 54 46 33 38 16 14 14 18 27 22
100 100 100 100 100 100 100 100 100 100 100 94 83 87 95 97 95 62 54 53 43 39 22 19 10 8 9 10 13 17 19 22 62 46 58 83 29 25 18 16 16 24 36
100 100 100 100 100 100 100 100 100 100 98 91 95 96 94 93 86 53 71 74 54 32 20 10 9 9 10 10 12 15 15 14 19 54 33 31 51 17 26 39 52 28 63
98 100 100 100 100 100 100 100 100 100 99 100 100 100 97 92 98 86 69 27 42 17 11 9 9 9 10 10 12 12 13 13 15 31 38 34 17 19 32 20 54 63 51
100 100 100 100 100 100 100 100 100 100 100 100 100 99 100 100 92 62 31 45 22 13 13 10 9 10 10 10 11 12 12 13 18 51 39 34 16 18 19 20 45 90 85
100 100 100 100 100 100 100 100 100 100 100 100 99 100 99 91 51 36 39 40 23 13 10 10 10 10 10 10 11 12 12 12 14 23 21 17 18 19 20 22 26 68 73
100 99 100 100 100 100 100 100 100 100 100 100 99 98 95 88 45 43 40 26 17 12 11 10 10 10 9 10 10 11 12 12 13 14 16 18 20 21 21 32 44 57 42
100 100 100 100 100 100 100 100 100 100 100 99 98 96 96 69 43 36 32 23 18 14 13 12 11 9 9 10 10 11 11 12 13 14 15 18 20 22 23 23 27 76 90
100 100 99 99 100 100 100 100 100 100 99 99 70 79 78 56 36 32 28 21 19 16 15 14 13 10 10 11 11 11 12 12 13 14 15 16 18 21 24 25 24 70 36
100 100 100 100 100 100 100 100 100 100 100 70 61 63 49 44 49 36 28 24 20 18 16 17 16 14 13 12 13 14 14 14 14 15 16 17 19 21 24 26 27 26 27
100 100 100 99 100 100 100 100 100 100 99 71 64 54 56 72 80 41 33 31 22 20 18 19 18 14 13 11 11 12 12 14 14 15 16 18 19 20 23 26 27 27 27
100 100 100 100 100 100 100 100 100 100 99 65 60 59 78 98 93 98 93 32 34 30 26 23 20 16 11 8 9 11 13 14 16 16 19 26 23 21 22 26 28 29 29
100 100 100 100 99 100 100 100 100 99 99 87 63 69 91 98 97 97 96 53 51 46 40 40 34 23 12 9 9 11 15 15 18 24 52 68 25 21 25 38 46 40 81
99 100 99 100 100 100 100 99 100 100 100 98 86 80 72 98 95 96 94 52 48 43 42 39 27 29 48 36 16 16 21 31 32 84 95 69 45 70 79 64 88 83 84
100 100 99 100 96 96 98 99 100 99 99 100 100 99 97 98 98 97 96 75 39 39 27 31 46 59 76 88 96 92 95 78 93 99 85 79 93 88 86 76 83 87 88
99 99 100 99 99 98 99 99 98 99 100 100 99 100 100 98 98 97 97 97 86 28 30 29 56 66 90 100 100 98 98 100 100 97 78 92 96 95 88 88 86 85 82
99 100 99 100 98 98 99 100 98 97 98 96 99 99 99 100 99 97 96 76 43 54 62 57 66 78 96 100 99 97 95 96 62 54 81 98 99 99 97 92 89 94 84
98 99 99 99 99 98 98 98 97 97 97 96 97 98 97 98 96 95 95 79 87 71 89 90 87 84 91 95 88 81 78 84 52 71 99 100 99 98 99 96 90 89 87
97 99 98 98 98 98 98 99 98 97 96 96 96 96 96 96 96 97 98 96 91 91 94 88 87 95 97 100 96 75 72 94 98 100 100 100 100 97 100 100 100 100 75
97 98 98 100 100 99 100 100 100 97 96 97 97 96 95 95 96 95 95 97 96 95 93 91 96 91 96 98 99 100 100 100 100 100 100 100 100 100 98 100 100 100 93
100 97 94 96 96 97 100 99 98 97 97 96 96 96 96 96 96 95 95 95 95 96 94 88 99 94 69 58 56 96 100 100 100 100 100 100 100 80 100 100 100 100 100
99 99 96 95 95 95 96 96 96 96 96 96 96 96 96 96 96 95 95 95 96 99 94 95 90 89 90 90 94 99 99 100 100 100 100 100 100 100 100 100 100 100 100
97 96 96 97 96 94 95 96 96 97 96 95 93 92 96 99 100 99 98 98 97 97 94 94 96 96 96 96 96 92 100 100 93 89 94 100 100 100 100 100 100 100 100
97 94 89 86 86 83 79 80 76 75 79 84 90 97 100 100 99 98 96 96 97 97 96 96 95 93 73 57 63 75 84 90 86 77 76 86 100 100 100 100 100 100 100
97 96 96 96 94 94 94 93 93 93 93 94 94 94 95 96 96 96 95 95 94 93 92 93 88 70 68 80 88 87 84 84 85 85 82 89 99 100 100 99 100 100 100

GFSGL_850_rhum_189.txt.gz
RH
74 73 74 71 99 100 100 100 100 100 100 100 100 100 99 84 65 69 61 64 84 45 33 26 31 37 38 31 31 31 49 61 68 87 89 80 69 24 18 28 25 38 18
70 79 92 83 99 100 100 100 100 100 100 100 100 100 99 88 83 71 67 77 56 67 29 29 45 41 34 31 29 29 29 66 66 54 34 50 56 48 26 28 52 60 21
94 94 96 87 96 100 100 100 100 100 100 100 100 100 98 92 89 80 60 46 45 35 50 57 54 45 46 31 66 14 22 66 60 34 34 69 32 22 15 18 38 48 46
98 98 100 92 99 100 100 100 100 100 100 100 100 100 99 94 94 92 69 84 85 82 62 42 71 53 51 75 28 12 20 47 54 57 80 85 42 30 45 34 43 87 71
98 100 100 93 100 100 100 100 100 100 100 100 100 100 100 98 98 94 97 99 98 56 56 86 80 48 47 37 21 15 22 33 68 57 75 81 75 25 52 84 94 86 28
100 100 100 98 100 100 100 100 100 100 100 100 100 100 100 100 100 100 99 98 61 60 83 85 49 33 33 30 17 17 23 25 50 78 82 52 44 30 53 27 82 62 95
99 100 100 99 100 100 100 100 100 99 100 100 100 100 100 99 100 100 99 94 72 94 100 48 15 21 30 20 13 14 17 31 66 72 58 54 29 20 22 46 73 80 84
99 100 100 99 100 100 99 100 99 99 99 98 99 99 99 99 98 99 95 97 61 37 38 13 16 19 15 13 13 14 16 20 30 32 42 27 17 19 30 75 70 67 49
100 98 98 100 100 100 100 99 99 99 98 99 100 98 99 99 100 98 80 45 39 74 34 26 15 14 12 12 12 12 12 13 14 16 18 17 18 20 22 36 44 70 93
100 100 100 100 100 99 99 99 99 100 99 100 99 99 99 99 98 60 50 46 42 73 23 21 16 12 11 10 11 11 12 12 13 14 14 16 19 20 22 24 47 81 89
100 100 100 100 100 100 100 100 99 99 100 99 99 98 98 99 98 82 50 44 54 23 20 18 14 11 10 9 10 10 11 12 13 14 14 16 17 19 21 24 26 36 55
99 100 100 100 100 100 100 99 99 100 99 99 100 99 99 98 71 56 69 46 30 22 18 16 15 12 10 9 10 11 12 14 14 14 15 15 17 20 22 24 26 27 28
100 100 100 100 100 100 100 100 100 100 100 99 98 90 90 71 63 60 57 39 33 30 27 20 19 16 16 14 12 15 15 14 15 16 20 28 25 23 21 23 26 27 28
100 100 99 99 99 99 100 100 100 99 99 99 81 76 69 63 58 60 59 80 73 47 34 28 29 26 24 18 15 14 17 16 17 21 44 70 78 37 28 24 26 29 46
98 98 98 98 98 98 99 99 100 100 100 99 97 68 54 51 59 68 71 94 94 55 42 41 40 34 25 20 18 14 21 27 26 45 90 100 96 79 59 89 96 95 91
99 98 98 97 99 99 99 99 99 99 99 99 99 96 91 66 69 92 97 97 95 80 61 46 52 52 68 70 57 43 26 41 51 82 96 99 96 94 90 89 91 90 89
97 97 97 96 97 97 98 98 98 99 99 99 98 98 99 97 98 98 97 96 96 96 76 86 81 83 99 83 96 93 92 89 84 95 91 98 98 96 88 90 87 89 90
98 99 98 98 99 98 97 97 97 97 97 99 97 97 100 99 98 97 98 99 98 98 91 84 97 81 70 88 97 94 86 95 91 100 100 100 96 98 99 96 90 94 89
100 100 99 99 100 100 100 100 99 98 97 97 97 97 98 98 97 98 98 96 95 96 96 96 94 86 84 96 91 92 87 96 97 92 100 100 98 99 99 99 92 90 93
99 100 100 100 99 98 99 98 97 97 97 96 96 96 96 96 96 97 96 97 96 96 96 96 93 88 92 94 95 83 77 88 92 95 100 100 100 98 99 98 98 96 93
95 95 99 100 100 100 100 100 100 100 99 98 96 96 96 96 96 96 96 95 96 96 95 90 93 95 95 95 95 94 93 100 98 100 100 99 99 100 99 100 99 98 97
95 99 100 100 100 100 100 100 100 100 100 99 96 96 96 98 97 98 97 98 96 95 94 95 95 95 95 95 95 97 100 100 98 98 99 100 97 100 100 99 100 99 98
97 100 100 100 97 99 100 100 100 100 99 96 95 95 96 96 96 97 97 97 96 95 95 96 96 96 99 97 95 97 99 99 96 95 95 96 95 100 100 100 100 100 99
95 100 100 99 99 99 100 100 100 100 97 96 96 97 100 96 96 96 95 95 95 94 95 98 96 98 98 95 99 100 95 94 95 97 95 95 95 96 96 96 98 100 100
97 97 98 100 100 100 100 100 99 98 98 99 100 100 100 96 96 98 96 95 96 96 95 97 96 95 95 96 97 97 95 94 94 96 96 98 98 99 100 100 100 98 98
98 97 97 97 100 100 100 99 100 100 100 100 100 100 100 100 99 99 97 96 96 97 96 97 96 96 93 82 73 76 90 94 89 79 73 99 100 100 98 100 98 99 97

GFSGL_850_rhum_195.txt.gz
RH
35 38 49 54 80 88 90 87 76 81 96 98 94 80 78 100 100 100 100 100 100 100 99 91 85 71 60 63 55 58 63 80 84 93 95 81 61 88 79 60 19 17 14
56 64 74 78 88 89 85 83 81 92 98 98 86 84 97 100 100 100 100 100 100 100 100 97 89 75 62 67 76 82 83 90 83 68 87 88 81 71 89 48 34 33 16
64 76 92 91 88 82 82 84 88 99 98 89 87 98 100 100 98 100 100 98 100 100 100 98 90 82 69 86 89 84 98 98 93 78 77 81 97 93 92 58 57 44 29
72 77 96 98 82 88 94 88 90 98 95 90 100 100 100 99 100 99 100 100 100 100 100 99 89 80 67 75 95 98 100 99 93 79 92 98 97 100 74 59 75 60 40
77 80 90 98 100 98 89 96 98 98 94 99 100 100 100 100 97 100 100 100 100 100 100 96 95 95 94 93 96 100 100 98 87 91 95 100 100 94 58 71 58 54 51
79 83 98 99 94 99 98 98 98 99 99 100 100 100 100 100 100 100 100 100 100 100 100 100 100 99 98 100 100 100 100 91 87 93 99 96 85 87 79 60 50 58 49
80 100 100 100 98 96 97 98 99 99 99 100 99 100 100 100 100 100 100 100 100 100 100 98 98 100 100 100 99 100 99 86 80 78 92 78 70 48 53 46 44 44 42
98 100 100 99 93 96 98 100 99 99 99 100 100 99 100 100 99 99 100 100 99 100 100 100 98 99 100 98 98 95 90 97 96 95 87 82 64 44 37 32 45 70 60
92 99 99 98 98 99 99 99 99 99 100 99 99 99 99 99 99 99 99 99 99 99 99 99 100 100 98 97 97 96 100 99 100 97 86 71 56 50 50 62 75 82 86
99 100 100 99 100 100 100 99 99 98 99 99 99 99 98 98 98 98 99 99 99 98 99 99 99 98 98 99 98 96 94 97 94 89 87 76 68 68 56 61 43 47 66
100 98 99 100 100 100 99 98 98 98 98 99 98 98 98 98 98 98 98 98 98 97 97 98 99 99 98 99 93 79 78 78 91 91 86 74 71 64 52 51 49 46 46
99 94 98 99 99 99 98 98 97 100 98 97 98 98 98 98 98 98 98 98 98 96 97 98 95 94 97 98 93 69 91 82 84 83 78 72 65 57 44 62 68 60 44
98 97 96 95 98 99 98 98 98 98 99 97 97 97 97 97 98 98 98 98 99 98 99 98 97 91 56 40 66 69 67 73 73 72 68 50 35 32 44 49 56 53 48
97 94 95 96 97 97 97 98 97 98 98 97 97 97 97 97 98 98 97 96 96 98 90 50 31 26 33 43 45 39 32 31 29 32 30 18 16 18 20 21 24 28 39
98 97 95 96 97 97 97 97 98 98 98 97 98 96 94 95 96 96 95 96 96 92 45 31 32 34 35 33 29 24 19 18 17 16 16 16 17 19 20 21 23 24 25
94 95 96 97 98 98 97 97 99 99 98 98 98 98 97 98 98 98 96 61 46 35 34 45 26 25 22 18 20 21 22 23 22 20 22 25 28 33 33 32 26 26 30
99 97 95 97 96 97 98 97 94 96 98 98 98 98 99 97 98 97 74 69 55 44 79 81 78 56 53 26 21 24 22 25 30 40 43 47 48 51 50 43 46 60 70
98 100 100 98 97 96 97 98 97 96 94 97 98 98 98 98 95 75 76 74 91 97 97 96 96 83 47 40 37 33 30 32 46 68 75 73 80 78 71 78 84 77 79
96 94 96 99 99 99 98 97 96 97 97 97 97 97 98 97 97 97 96 96 96 96 96 96 90 78 65 60 60 54 47 42 53 61 79 97 91 80 94 96 90 87 89
100 99 94 99 100 99 100 99 98 97 97 97 97 96 96 96 96 96 96 96 96 96 96 96 96 96 95 92 85 79 94 95 93 76 78 86 93 95 96 96 95 95 91
100 100 99 93 92 98 99 98 100 99 95 94 96 96 95 94 93 95 94 95 96 96 95 96 97 97 97 95 96 97 96 95 96 96 96 96 96 96 96 95 97 97 91
98 100 99 99 96 94 95 95 94 93 96 97 100 100 99 99 97 95 95 94 94 96 96 96 97 97 98 96 95 96 96 97 96 96 96 95 95 95 96 96 99 98 97
97 99 100 99 99 98 97 97 96 97 94 92 94 93 92 94 95 92 92 92 94 95 94 96 96 96 95 95 97 97 96 95 95 95 93 93 96 97 95 93 95 97 97
100 100 98 100 100 99 99 99 100 100 96 93 97 99 95 92 93 94 92 91 92 94 95 94 95 94 96 95 96 95 94 94 94 95 95 95 95 96 95 94 95 95 96
100 97 96 96 96 98 98 98 100 100 100 96 95 95 97 97 97 97 96 94 92 91 91 92 94 94 95 94 94 95 95 96 96 95 97 97 98 98 97 96 95 96 96
98 98 97 97 96 95 96 97 99 99 98 99 98 97 95 96 96 96 95 95 94 94 94 94 96 96 94 94 97 98 97 98 98 98 97 96 97 97 95 95 94 96 97